FW8560 Weather Reports


time (UTC)temp
F
wind
direction
speed
knots
gust
knots
rain 1hr
in
rain 24hr
in
rain mn
in
humidity
%
barometer
mb
20260505011537 58 60 9.6 14.8 0.00 0.00 0.00 40 1006.6
20260505011034 58 41 12.2 13.9 0.00 0.00 0.00 40 1006.4
20260505010530 58 51 8.7 13.0 0.00 0.00 0.00 39 1006.4
20260505010027 58 35 10.4 13.9 0.00 0.00 0.00 39 1005.8
20260505005523 59 42 11.3 16.5 0.00 0.00 0.00 39 1006.1
20260505005021 59 38 13.0 19.1 0.00 0.00 0.00 39 1005.8
20260505004517 59 36 14.8 19.1 0.00 0.00 0.00 38 1005.7
20260505004014 59 28 13.0 20.0 0.00 0.00 0.00 38 1005.6
20260505003511 59 39 12.2 17.4 0.00 0.00 0.00 38 1005.6
20260505003009 60 54 13.0 19.1 0.00 0.00 0.00 38 1005.4
20260505002503 60 42 11.3 18.2 0.00 0.00 0.00 38 1005.4
20260505002002 60 32 11.3 20.0 0.00 0.00 0.00 38 1005.6
20260505001459 60 32 13.9 19.1 0.00 0.00 0.00 38 1005.6
20260505000956 61 50 12.2 18.2 0.00 0.00 0.00 38 1005.3
20260505000454 61 56 14.8 20.0 0.00 0.00 0.00 37 1005.4
20260504235951 62 37 11.3 16.5 0.00 0.00 0.00 36 1005.3
20260504235448 62 36 13.0 15.6 0.00 0.00 0.00 36 1005.3
20260504234944 62 35 13.9 17.4 0.00 0.00 0.00 36 1005.6
20260504234442 62 27 9.6 20.0 0.00 0.00 0.00 36 1005.4
20260504233938 63 38 15.6 17.4 0.00 0.00 0.00 35 1005.6
20260504233434 63 20 11.3 13.9 0.00 0.00 0.00 35 1005.4
20260504232931 63 24 7.8 10.4 0.00 0.00 0.00 35 1005.3
20260504232428 63 33 11.3 13.0 0.00 0.00 0.00 35 1005.4
20260504231925 63 39 10.4 14.8 0.00 0.00 0.00 34 1005.3
20260504231421 63 21 9.6 13.0 0.00 0.00 0.00 34 1005.3
20260504230918 64 17 9.6 13.9 0.00 0.00 0.00 34 1005.1
20260504230415 64 22 12.2 17.4 0.00 0.00 0.00 34 1005.0
20260504225914 64 40 10.4 18.2 0.00 0.00 0.00 34 1004.9
20260504225410 64 33 13.9 17.4 0.00 0.00 0.00 34 1004.9
20260504224908 64 32 11.3 15.6 0.00 0.00 0.00 33 1004.8
20260504224404 64 22 11.3 18.2 0.00 0.00 0.00 33 1004.8
20260504223901 64 51 10.4 14.8 0.00 0.00 0.00 33 1004.1
20260504223356 64 31 10.4 15.6 0.00 0.00 0.00 33 1004.4
20260504222853 64 54 13.9 17.4 0.00 0.00 0.00 33 1004.5
20260504222350 65 43 11.3 19.1 0.00 0.00 0.00 33 1004.4
20260504221848 66 28 15.6 20.0 0.00 0.00 0.00 32 1004.7
20260504221344 65 41 14.8 20.0 0.00 0.00 0.00 32 1004.4
20260504220842 65 37 14.8 17.4 0.00 0.00 0.00 32 1004.4
20260504220338 65 15 10.4 14.8 0.00 0.00 0.00 32 1004.5
20260504215836 65 17 11.3 13.9 0.00 0.00 0.00 32 1004.7
20260504215332 65 27 7.8 14.8 0.00 0.00 0.00 32 1004.3
20260504214828 65 20 10.4 17.4 0.00 0.00 0.00 32 1004.7
20260504214325 65 27 9.6 13.9 0.00 0.00 0.00 31 1004.4
20260504213822 66 30 11.3 18.2 0.00 0.00 0.00 31 1004.7
20260504213318 66 32 12.2 17.4 0.00 0.00 0.00 31 1004.4
20260504212815 67 16 9.6 14.8 0.00 0.00 0.00 30 1004.4
20260504212311 66 44 11.3 18.2 0.00 0.00 0.00 31 1004.3
20260504211809 67 18 9.6 16.5 0.00 0.00 0.00 30 1004.3
20260504211305 66 34 8.7 18.2 0.00 0.00 0.00 31 1004.3
20260504210803 66 27 13.9 16.5 0.00 0.00 0.00 30 1004.2
20260504210300 68 45 11.3 18.2 0.00 0.00 0.00 30 1004.1
20260504205757 67 45 14.8 22.6 0.00 0.00 0.00 30 1003.8
20260504205254 68 0 11.3 19.1 0.00 0.00 0.00 29 1004.0
20260504204752 69 35 12.2 20.9 0.00 0.00 0.00 28 1004.0
20260504204250 69 34 9.6 19.1 0.00 0.00 0.00 28 1004.0
20260504203749 68 19 11.3 19.1 0.00 0.00 0.00 28 1004.0
20260504203246 69 14 16.5 20.0 0.00 0.00 0.00 28 1004.1
20260504202741 71 23 11.3 17.4 0.00 0.00 0.00 27 1004.0
20260504202239 69 8 15.6 19.1 0.00 0.00 0.00 28 1004.1
20260504201735 68 47 12.2 17.4 0.00 0.00 0.00 29 1004.0
20260504201232 70 17 12.2 17.4 0.00 0.00 0.00 27 1003.9
20260504200731 70 33 14.8 16.5 0.00 0.00 0.00 28 1004.0
20260504200226 71 36 16.5 20.9 0.00 0.00 0.00 27 1004.0
20260504195723 70 25 14.8 20.0 0.00 0.00 0.00 28 1004.0
20260504195219 70 11 11.3 19.1 0.00 0.00 0.00 28 1004.1
20260504194716 69 31 17.4 22.6 0.00 0.00 0.00 28 1004.0
20260504194212 70 21 15.6 22.6 0.00 0.00 0.00 28 1004.2
20260504193708 71 31 17.4 21.7 0.00 0.00 0.00 28 1004.0
20260504193206 71 5 16.5 19.1 0.00 0.00 0.00 27 1004.0
20260504192704 72 28 16.5 18.2 0.00 0.00 0.00 27 1004.0
20260504192202 70 3 10.4 17.4 0.00 0.00 0.00 28 1004.2
20260504191701 70 358 14.8 16.5 0.00 0.00 0.00 28 1004.3
20260504191156 69 11 8.7 14.8 0.00 0.00 0.00 29 1004.4
20260504190652 71 16 13.0 17.4 0.00 0.00 0.00 28 1004.0
20260504190149 69 23 13.0 16.5 0.00 0.00 0.00 29 1004.3
20260504185645 68 22 13.9 19.1 0.00 0.00 0.00 30 1003.9
20260504185142 69 0 15.6 20.9 0.00 0.00 0.00 30 1004.1
20260504184638 70 23 13.0 19.1 0.00 0.00 0.00 30 1003.8
20260504184133 70 6 17.4 20.0 0.00 0.00 0.00 29 1003.9
20260504183630 71 18 14.8 20.9 0.00 0.00 0.00 30 1003.8
20260504183128 69 14 15.6 18.2 0.00 0.00 0.00 32 1003.6
20260504182625 71 7 13.9 20.0 0.00 0.00 0.00 30 1003.8
20260504182123 70 28 14.8 19.1 0.00 0.00 0.00 31 1003.5
20260504181620 70 355 13.9 20.0 0.00 0.00 0.00 31 1003.4
20260504181117 73 27 8.7 16.5 0.00 0.00 0.00 28 1003.4
20260504180617 72 15 16.5 21.7 0.00 0.00 0.00 28 1003.6
20260504180115 73 19 8.7 13.0 0.00 0.00 0.00 27 1003.8
20260504175612 73 8 11.3 15.6 0.00 0.00 0.00 27 1003.6
20260504175108 72 33 16.5 18.2 0.00 0.00 0.00 29 1003.3
20260504174607 72 6 10.4 13.9 0.00 0.00 0.00 26 1003.5
20260504174103 70 18 13.0 18.2 0.00 0.00 0.00 28 1003.3
20260504173600 70 13 13.9 24.3 0.00 0.00 0.00 30 1003.8
20260504173058 70 11 9.6 16.5 0.00 0.00 0.00 28 1003.6
20260504172553 70 16 13.0 14.8 0.00 0.00 0.00 27 1003.5
20260504172050 73 24 7.8 8.7 0.00 0.00 0.00 21 1003.4
20260504171547 75 122 4.3 7.8 0.00 0.00 0.00 20 1003.3
20260504171044 74 114 2.6 6.1 0.00 0.00 0.00 20 1003.4
20260504170539 74 100 0.0 2.6 0.00 0.00 0.00 21 1003.2
20260504150924 66 340 0.9 2.6 0.00 0.00 0.00 31 1003.8
20260504150420 66 249 0.9 2.6 0.00 0.00 0.00 31 1004.0
20260504140847 58 288 6.1 7.8 0.00 0.00 0.00 38 1005.4
20260504140343 57 330 2.6 5.2 0.00 0.00 0.00 40 1005.2
20260504130812 46 327 2.6 3.5 0.00 0.00 0.00 57 1006.8
20260504130308 45 357 0.9 2.6 0.00 0.00 0.00 60 1006.9
20260504120231 35 27 0.0 1.7 0.00 0.00 0.00 77 1007.8
20260504110659 34 298 3.5 4.3 0.00 0.00 0.00 80 1007.4
20260504110155 34 282 3.5 4.3 0.00 0.00 0.00 79 1007.6
20260504100615 36 294 7.0 9.6 0.00 0.00 0.00 77 1007.4
20260504100113 37 290 4.3 7.8 0.00 0.00 0.00 76 1007.4
20260504081506 38 312 1.7 2.6 0.00 0.00 0.00 76 1007.8
20260504081001 37 286 2.6 2.6 0.00 0.00 0.00 76 1007.8
20260504080458 37 293 2.6 3.5 0.00 0.00 0.00 76 1007.9
20260504050311 45 357 0.9 2.6 0.00 0.00 0.00 64 1008.4
20260504045808 44 266 1.7 2.6 0.00 0.00 0.00 65 1008.3
20260504045304 44 299 1.7 2.6 0.00 0.00 0.00 64 1008.1
20260504044800 46 335 1.7 2.6 0.00 0.00 0.00 62 1008.6
20260504044258 47 53 1.7 1.7 0.00 0.00 0.00 62 1008.5
20260504043755 48 110 2.6 2.6 0.00 0.00 0.00 62 1008.4
20260504043251 48 105 1.7 1.7 0.00 0.00 0.00 63 1008.5
20260504042749 49 92 1.7 1.7 0.00 0.00 0.00 61 1008.4
20260504042245 50 126 2.6 3.5 0.00 0.00 0.00 59 1008.4
20260504041742 50 105 2.6 3.5 0.00 0.00 0.00 59 1008.5
20260504041238 51 116 3.5 4.3 0.00 0.00 0.00 57 1008.3
20260504040734 51 132 3.5 4.3 0.00 0.00 0.00 59 1008.3
20260504040232 53 134 4.3 5.2 0.00 0.00 0.00 54 1008.4
20260504035727 52 128 3.5 4.3 0.00 0.00 0.00 54 1008.2
20260504035225 52 73 1.7 2.6 0.00 0.00 0.00 56 1008.3
20260504034723 52 156 1.7 3.5 0.00 0.00 0.00 58 1008.2
20260504034219 52 127 4.3 6.1 0.00 0.00 0.00 58 1008.2
20260504033717 54 141 3.5 4.3 0.00 0.00 0.00 53 1008.3
20260504033214 56 105 4.3 7.0 0.00 0.00 0.00 47 1008.1
20260504032711 57 72 4.3 6.1 0.00 0.00 0.00 46 1008.1
20260504032209 54 118 3.5 5.2 0.00 0.00 0.00 51 1008.1
20260504031705 53 132 2.6 3.5 0.00 0.00 0.00 52 1007.9
20260504031202 54 147 4.3 4.3 0.00 0.00 0.00 52 1007.9
20260504030658 56 91 1.7 3.5 0.00 0.00 0.00 45 1007.9
20260504030155 57 41 5.2 6.1 0.00 0.00 0.00 45 1007.5
20260504025652 57 37 5.2 7.0 0.00 0.00 0.00 45 1007.7
20260504025149 58 20 4.3 7.0 0.00 0.00 0.00 44 1007.7
20260504024646 58 26 8.7 11.3 0.00 0.00 0.00 43 1007.6
20260504024142 59 21 7.0 11.3 0.00 0.00 0.00 42 1007.5
20260504023639 59 23 8.7 13.0 0.00 0.00 0.00 41 1007.4
20260504023135 60 16 12.2 16.5 0.00 0.00 0.00 40 1007.6
20260504022632 61 24 13.9 16.5 0.00 0.00 0.00 39 1007.1
20260504022127 61 18 9.6 14.8 0.00 0.00 0.00 39 1006.9
20260504021626 61 13 11.3 18.2 0.00 0.00 0.00 39 1006.9
20260504021122 62 15 17.4 20.9 0.00 0.00 0.00 38 1006.8
20260504020619 62 7 19.1 20.9 0.00 0.00 0.00 37 1007.0
20260504020115 63 10 7.8 8.7 0.00 0.00 0.00 30 1006.8
20260504015612 62 26 5.2 6.1 0.00 0.00 0.00 32 1006.8
20260504015108 61 20 2.6 4.3 0.00 0.00 0.00 33 1006.5
20260504014604 61 11 1.7 3.5 0.00 0.00 0.00 33 1006.2
20260504014101 64 39 1.7 1.7 0.00 0.00 0.00 33 1006.5
20260504013559 65 77 1.7 2.6 0.00 0.00 0.00 32 1006.1
20260504013055 65 86 2.6 3.5 0.00 0.00 0.00 32 1005.9
20260504012553 65 89 2.6 3.5 0.00 0.00 0.00 32 1006.0
20260504012051 66 95 3.5 4.3 0.00 0.00 0.00 31 1006.1